COSMOS 2251 DEB, 36074

Orbit data source: Space-Track

COSMOS 2251 DEB, 36074 is space debris in LEO originally from a launch on Wed, 16 Jun 1993 UTC launched from the Plesetsk Missile And Space Complex (PKMTR). The debris from Iridium 33, an American commercial communications satellite, has been tracked extensively since its accidental collision with the defunct Russian satellite Cosmos 2251 in 2009. This event, occurring at high speed in low Earth orbit (LEO), generated thousands of pieces of space debris, significantly increasing the risk of further collisions. The Iridium 33 debris cloud has impacted space traffic management and orbital debris mitigation strategies, making it a subject of ongoing study in space situational awareness.

Loading next visibility...
Identifier
36074, 1993-036AYM
Orbit
LEO
Country
Flag of CISCIS
Related business
Manufacturer
Unknown
Mission
Spacecraft
Bus & Motor
Unknown
Mass
Unknown
Launch date (UTC)
1993-06-16 (33 years ago)
Launch vehicle
Unknown
Launch site
Plesetsk Missile And Space Complex (PKMTR)
Object type
Payload
Rocket body
Debris
Shape & HBR
Unknown shape, 0.1 m
Radar Cross Section
Small (<0.1 m²)

Expand to show TLE details & history
Last TLE update: 3 days ago

TLE from 3 days ago
0 COSMOS 2251 DEB
1 36074U 93036AYM 26104.99625596  .00001587  00000-0  45985-3 0  9990
2 36074  73.9888 110.5286 0044224 178.8408 181.2860 14.44728959876897
Epoch: 2026-04-14T23:54Z
TLE epoch observation values (Epoch: 2026-04-14T23:54:36.514Z)
Latitude
-0.00008°
Longitude
-91.28806°
Altitude
777.025 km
Speed
7.449 km/s
True Right ascension
07h 22m 06s
True Declination
0° 00' 00"
Sunlit
Object was in daylight at epoch
Visualization orbit readout
Latitude
Unknown
Longitude
Unknown
Altitude
Unknown
Speed
Unknown
Apparent Right ascension
Unknown
Apparent Declination
Unknown
Sunlit
N/A
Visualization observer readout
Local Sidereal Time
00:56:44
Azimuth
Unknown
Elevation
Unknown
Doppler factor
Unknown
Orbital elements
Apogee altitude
772.017 km
Perigee altitude
709.053 km
Semi-major axis
7,118.672 km
Eccentricity
0.00442
Inclination
73.9888°
RAAN
110.5286°
Arg. of periapsis
178.8408°
True anomaly
181.27469°
Mean anomaly
181.286°
Eccentric anomaly
181.28034°
Mean motion
3.61364 °/min
Orbital period
99.62 mins
BSTAR
0.00045985
Loading maneuver chart data...
Computing Atmospheric mass density...

Documentation

Showing up to 5 results
|